FW6530 Weather Reports


Display with metric or nautical units.
time (UTC)temp
F
wind
direction
speed
MPH
gust
MPH
rain 1hr
in
rain 24hr
in
rain mn
in
humidity
%
barometer
mb
20260504021538 60 84 5.0 11.0 0.00 0.00 0.00 28 1018.1
20260504021023 60 120 3.0 8.0 0.00 0.00 0.00 28 1018.1
20260504020525 60 107 3.0 8.0 0.00 0.00 0.00 27 1018.0
20260504020035 61 96 3.0 8.0 0.00 0.00 0.00 28 1018.0
20260504015525 61 107 3.0 10.0 0.00 0.00 0.00 27 1017.9
20260504015028 62 121 4.0 10.0 0.00 0.00 0.00 27 1017.9
20260504014538 62 109 3.0 10.0 0.00 0.00 0.00 27 1017.8
20260504014028 63 112 6.0 15.0 0.00 0.00 0.00 26 1017.7
20260504013524 63 94 7.0 15.0 0.00 0.00 0.00 26 1017.8
20260504013042 64 65 5.0 12.0 0.00 0.00 0.00 26 1017.8
20260504012524 64 75 5.0 12.0 0.00 0.00 0.00 25 1017.9
20260504012025 64 80 4.0 12.0 0.00 0.00 0.00 25 1017.8
20260504011541 65 74 6.0 12.0 0.00 0.00 0.00 25 1017.9
20260504011030 65 49 4.0 11.0 0.00 0.00 0.00 25 1017.9
20260504010526 65 50 7.0 13.0 0.00 0.00 0.00 24 1017.9
20260504010043 65 84 7.0 14.0 0.00 0.00 0.00 24 1018.0
20260504005525 66 74 7.0 14.0 0.00 0.00 0.00 24 1018.0
20260504005024 66 80 6.0 14.0 0.00 0.00 0.00 24 1018.0
20260504004540 66 78 6.0 14.0 0.00 0.00 0.00 24 1018.0
20260504004023 66 44 4.0 14.0 0.00 0.00 0.00 24 1018.0
20260504003525 67 62 4.0 14.0 0.00 0.00 0.00 24 1018.1
20260504003041 66 49 5.0 14.0 0.00 0.00 0.00 24 1018.1
20260504002527 66 69 5.0 14.0 0.00 0.00 0.00 24 1018.3
20260504002025 66 78 3.0 10.0 0.00 0.00 0.00 24 1018.2
20260504001536 67 86 6.0 11.0 0.00 0.00 0.00 23 1018.2
20260504001028 67 63 5.0 11.0 0.00 0.00 0.00 24 1018.2
20260504000524 67 74 5.0 12.0 0.00 0.00 0.00 23 1018.3
20260504000042 67 55 6.0 14.0 0.00 0.00 0.00 23 1018.3
20260503235522 67 64 5.0 14.0 0.00 0.00 0.00 23 1018.3
20260503235024 67 50 7.0 14.0 0.00 0.00 0.00 23 1018.3
20260503234541 67 101 5.0 16.0 0.00 0.00 0.00 23 1018.3
20260503234025 67 83 9.0 16.0 0.00 0.00 0.00 23 1018.4
20260503233528 67 62 6.0 13.0 0.00 0.00 0.00 23 1018.3
20260503233040 67 69 5.0 13.0 0.00 0.00 0.00 23 1018.4
20260503232527 67 86 8.0 15.0 0.00 0.00 0.00 23 1018.5
20260503232025 67 65 7.0 15.0 0.00 0.00 0.00 23 1018.5
20260503231535 67 45 4.0 14.0 0.00 0.00 0.00 24 1018.6
20260503231029 67 84 6.0 16.0 0.00 0.00 0.00 24 1018.7
20260503230525 67 75 4.0 17.0 0.00 0.00 0.00 23 1018.8
20260503230036 67 90 8.0 17.0 0.00 0.00 0.00 23 1019.0
20260503225524 68 65 9.0 17.0 0.00 0.00 0.00 24 1019.0
20260503225027 67 82 7.0 16.0 0.00 0.00 0.00 24 1019.0
20260503224535 67 78 9.0 17.0 0.00 0.00 0.00 23 1019.2
20260503224025 67 51 9.0 17.0 0.00 0.00 0.00 23 1019.3
20260503223525 68 98 6.0 16.0 0.00 0.00 0.00 23 1019.5
20260503223041 68 94 9.0 16.0 0.00 0.00 0.00 22 1019.4
20260503222526 68 82 4.0 15.0 0.00 0.00 0.00 22 1019.3
20260503222024 68 39 4.0 17.0 0.00 0.00 0.00 21 1019.5
20260503221540 67 85 4.0 17.0 0.00 0.00 0.00 22 1019.5
20260503221023 66 80 7.0 17.0 0.00 0.00 0.00 22 1019.6
20260503220524 67 34 9.0 17.0 0.00 0.00 0.00 22 1019.7
20260503220042 67 80 6.0 17.0 0.00 0.00 0.00 21 1019.6
20260503215527 67 84 5.0 17.0 0.00 0.00 0.00 21 1019.7
20260503215024 68 64 9.0 17.0 0.00 0.00 0.00 21 1019.8
20260503214536 68 90 7.0 17.0 0.00 0.00 0.00 20 1019.8
20260503214024 68 70 7.0 14.0 0.00 0.00 0.00 20 1019.8
20260503213525 68 101 5.0 14.0 0.00 0.00 0.00 20 1019.9
20260503213036 68 56 6.0 12.0 0.00 0.00 0.00 20 1020.0
20260503212525 68 65 6.0 12.0 0.00 0.00 0.00 19 1020.1
20260503212024 68 55 4.0 15.0 0.00 0.00 0.00 22 1020.2
20260503211541 67 69 7.0 15.0 0.00 0.00 0.00 22 1020.3
20260503211024 67 86 8.0 17.0 0.00 0.00 0.00 22 1020.4
20260503210524 67 46 9.0 17.0 0.00 0.00 0.00 22 1020.4
20260503210040 68 88 7.0 15.0 0.00 0.00 0.00 23 1020.4
20260503205525 67 90 6.0 12.0 0.00 0.00 0.00 24 1020.7
20260503205025 67 55 6.0 15.0 0.00 0.00 0.00 23 1020.7
20260503204538 67 78 9.0 17.0 0.00 0.00 0.00 23 1020.7
20260503204024 67 71 6.0 17.0 0.00 0.00 0.00 23 1020.9
20260503203525 67 51 8.0 13.0 0.00 0.00 0.00 24 1020.9
20260503203042 67 61 4.0 18.0 0.00 0.00 0.00 23 1021.0
20260503202524 67 76 10.0 18.0 0.00 0.00 0.00 24 1021.1
20260503202026 66 70 4.0 19.0 0.00 0.00 0.00 24 1021.2
20260503201541 66 92 5.0 19.0 0.00 0.00 0.00 24 1021.3
20260503201025 66 105 4.0 14.0 0.00 0.00 0.00 24 1021.4
20260503200527 65 68 6.0 15.0 0.00 0.00 0.00 25 1021.4
20260503200035 65 107 6.0 16.0 0.00 0.00 0.00 24 1021.5
20260503195526 65 68 8.0 16.0 0.00 0.00 0.00 25 1021.6
20260503195025 65 79 7.0 16.0 0.00 0.00 0.00 24 1021.6
20260503194536 65 88 9.0 15.0 0.00 0.00 0.00 24 1021.8
20260503194025 66 113 6.0 15.0 0.00 0.00 0.00 25 1021.9
20260503193527 66 81 8.0 15.0 0.00 0.00 0.00 25 1021.9
20260503193036 66 14 3.0 14.0 0.00 0.00 0.00 26 1022.0
20260503192524 66 45 6.0 14.0 0.00 0.00 0.00 25 1022.0
20260503192027 66 66 7.0 14.0 0.00 0.00 0.00 26 1022.1
20260503191538 66 73 6.0 12.0 0.00 0.00 0.00 28 1022.0
20260503191024 65 35 5.0 15.0 0.00 0.00 0.00 28 1022.2
20260503190525 64 48 7.0 16.0 0.00 0.00 0.00 29 1022.4
20260503190042 64 79 10.0 16.0 0.00 0.00 0.00 28 1022.5
20260503185524 63 88 7.0 15.0 0.00 0.00 0.00 28 1022.6
20260503185024 64 65 5.0 16.0 0.00 0.00 0.00 29 1022.7
20260503184557 64 110 8.0 16.0 0.00 0.00 0.00 29 1022.8
20260503184024 65 40 8.0 14.0 0.00 0.00 0.00 28 1023.0
20260503183523 65 86 4.0 10.0 0.00 0.00 0.00 28 1023.1
20260503183047 65 175 2.0 11.0 0.00 0.00 0.00 28 1023.1
20260503182523 65 194 4.0 12.0 0.00 0.00 0.00 28 1023.3
20260503182024 65 196 2.0 13.0 0.00 0.00 0.00 26 1023.4
20260503181543 64 184 5.0 13.0 0.00 0.00 0.00 25 1023.5
20260503181028 63 134 3.0 11.0 0.00 0.00 0.00 27 1023.5
20260503180525 63 80 5.0 11.0 0.00 0.00 0.00 31 1023.6
20260503180040 63 118 5.0 16.0 0.00 0.00 0.00 32 1023.6
20260503175524 62 151 4.0 16.0 0.00 0.00 0.00 32 1023.7
20260503175024 63 147 6.0 16.0 0.00 0.00 0.00 30 1023.7
20260503174538 63 182 1.0 12.0 0.00 0.00 0.00 33 1023.8
20260503174028 62 273 6.0 12.0 0.00 0.00 0.00 32 1023.8
20260503173524 62 171 4.0 14.0 0.00 0.00 0.00 31 1024.0
20260503173038 61 73 5.0 14.0 0.00 0.00 0.00 34 1024.0
20260503172524 61 179 7.0 14.0 0.00 0.00 0.00 33 1024.0
20260503172021 60 196 6.0 15.0 0.00 0.00 0.00 35 1024.0
20260503171554 60 163 6.0 15.0 0.00 0.00 0.00 33 1024.0
20260503171026 60 117 6.0 12.0 0.00 0.00 0.00 34 1024.1
20260503170524 60 165 7.0 12.0 0.00 0.00 0.00 35 1024.1
20260503150524 55 186 3.0 8.0 0.00 0.00 0.00 45 1025.0
20260503131025 42 269 2.0 4.0 0.00 0.00 0.00 76 1025.6
20260503130524 41 299 1.0 4.0 0.00 0.00 0.00 77 1025.6
20260503110525 40 285 2.0 4.0 0.00 0.00 0.00 75 1025.0
20260503081538 41 0 0.0 0.0 0.00 0.00 0.00 70 1025.3
20260503081026 42 0 0.0 0.0 0.00 0.00 0.00 69 1025.4
20260503080523 43 0 0.0 0.0 0.00 0.00 0.00 68 1025.5
20260503072527 45 347 2.0 6.0 0.00 0.00 0.00 66 1025.8
20260503072024 45 348 3.0 7.0 0.00 0.00 0.00 67 1025.8
20260503071553 45 360 2.0 7.0 0.00 0.00 0.00 66 1025.7
20260503071023 45 351 2.0 6.0 0.00 0.00 0.00 66 1025.8
20260503070523 45 344 2.0 6.0 0.00 0.00 0.00 66 1025.8
20260503055023 46 5 4.0 9.0 0.00 0.00 0.00 66 1025.8
20260503054555 46 0 3.0 8.0 0.00 0.00 0.00 66 1025.8
20260503054025 46 5 3.0 8.0 0.00 0.00 0.00 65 1025.8
20260503053527 46 13 3.0 8.0 0.00 0.00 0.00 65 1025.8
20260503053041 46 12 3.0 8.0 0.00 0.00 0.00 65 1026.0
20260503052525 46 50 2.0 9.0 0.00 0.00 0.00 65 1025.9
20260503052028 46 11 3.0 9.0 0.00 0.00 0.00 65 1025.8
20260503051542 46 360 4.0 9.0 0.00 0.00 0.00 65 1025.8
20260503051027 46 350 3.0 8.0 0.00 0.00 0.00 65 1025.8
20260503050525 47 5 3.0 8.0 0.00 0.00 0.00 65 1025.7
20260503050044 47 5 3.0 8.0 0.00 0.00 0.00 64 1025.8
20260503045525 47 38 3.0 8.0 0.00 0.00 0.00 64 1025.8
20260503045024 47 38 3.0 8.0 0.00 0.00 0.00 64 1025.8
20260503044548 47 22 3.0 8.0 0.00 0.00 0.00 64 1025.8
20260503044028 47 17 3.0 10.0 0.00 0.00 0.00 63 1025.8
20260503043525 48 40 4.0 10.0 0.00 0.00 0.00 63 1025.6
20260503043044 48 350 4.0 11.0 0.00 0.00 0.00 63 1025.6
20260503042525 48 26 4.0 11.0 0.00 0.00 0.00 63 1025.7
20260503042025 48 27 5.0 13.0 0.00 0.00 0.00 62 1025.6
20260503041545 48 11 3.0 13.0 0.00 0.00 0.00 61 1025.7
20260503041023 48 24 6.0 13.0 0.00 0.00 0.00 61 1025.7
20260503040525 49 51 3.0 10.0 0.00 0.00 0.00 60 1025.7
20260503040042 49 38 3.0 10.0 0.00 0.00 0.00 59 1025.6
20260503035524 49 61 3.0 11.0 0.00 0.00 0.00 58 1025.6
20260503035025 49 55 4.0 12.0 0.00 0.00 0.00 57 1025.6
20260503034539 50 55 5.0 16.0 0.00 0.00 0.00 56 1025.5
20260503034025 50 71 5.0 16.0 0.00 0.00 0.00 55 1025.2
20260503033527 50 49 7.0 14.0 0.00 0.00 0.00 54 1025.2
20260503033038 51 65 4.0 14.0 0.00 0.00 0.00 52 1025.0
20260503032525 51 53 7.0 14.0 0.00 0.00 0.00 52 1025.0
20260503032035 51 47 6.0 13.0 0.00 0.00 0.00 50 1024.8
20260503031537 52 10 4.0 12.0 0.00 0.00 0.00 48 1024.7
20260503031025 52 50 5.0 12.0 0.00 0.00 0.00 46 1024.6
20260503030525 52 45 6.0 17.0 0.00 0.00 0.00 43 1024.5
20260503030042 53 58 7.0 17.0 0.00 0.00 0.00 41 1024.5
20260503025524 53 85 4.0 12.0 0.00 0.00 0.00 38 1024.4
20260503025024 53 46 3.0 12.0 0.00 0.00 0.00 37 1024.3
20260503024543 54 68 4.0 11.0 0.00 0.00 0.00 36 1024.3
20260503024025 54 74 5.0 11.0 0.00 0.00 0.00 36 1024.2
20260503023524 54 77 3.0 11.0 0.00 0.00 0.00 35 1024.0
20260503023043 55 56 4.0 11.0 0.00 0.00 0.00 34 1023.9
20260503022524 55 45 3.0 7.0 0.00 0.00 0.00 34 1023.8
20260503022027 55 48 2.0 6.0 0.00 0.00 0.00 33 1023.8